DK8PN Weather Reports


time (UTC)temp
C
wind
direction
speed
KPH
gust
KPH
rain 1hr
cm
rain 24hr
cm
rain mn
cm
humidity
%
barometer
mb
20260503203015 16 264 0.0 0.0 0.00 0.00 0.00 51 1012.6
20260503201525 16 294 0.0 0.0 0.00 0.00 0.00 49 1012.6
20260503200012 16 279 0.0 6.4 0.00 0.00 0.00 48 1012.4
20260503194510 17 307 0.0 3.2 0.00 0.00 0.00 48 1012.2
20260503193012 17 294 0.0 4.8 0.00 0.00 0.00 47 1012.0
20260503191509 17 325 0.0 3.2 0.00 0.00 0.00 47 1011.8
20260503190017 17 288 0.0 6.4 0.00 0.00 0.00 46 1011.9
20260503184508 18 293 1.6 6.4 0.00 0.00 0.00 45 1011.8
20260503183014 18 280 3.2 19.3 0.00 0.00 0.00 44 1011.4
20260503181519 18 296 9.7 17.7 0.00 0.00 0.00 48 1011.2
20260503180005 19 238 4.8 16.1 0.00 0.00 0.00 61 1011.0
20260503174557 20 319 0.0 0.0 0.00 0.00 0.00 58 1010.6
20260503173058 20 318 0.0 0.0 0.00 0.00 0.00 58 1010.6
20260503171551 20 335 3.2 12.9 0.00 0.00 0.00 55 1010.5
20260503081559 18 149 0.0 0.0 0.00 0.00 0.00 50 1013.7
20260503071551 15 69 0.0 0.0 0.00 0.00 0.00 66 1013.6
20260503054529 10 292 0.0 0.0 0.00 0.00 0.00 82 1013.4
20260503053036 10 292 0.0 0.0 0.00 0.00 0.00 83 1013.4
20260503051524 8 292 0.0 0.0 0.00 0.00 0.00 88 1013.3
20260503050022 7 292 0.0 0.0 0.00 0.00 0.00 89 1013.4
20260503044545 7 292 0.0 0.0 0.00 0.00 0.00 89 1013.4
20260503043015 6 292 0.0 0.0 0.00 0.00 0.00 87 1013.5
20260503041514 7 292 0.0 0.0 0.00 0.00 0.00 87 1013.5
20260503040017 7 292 0.0 0.0 0.00 0.00 0.00 88 1013.4
20260503034513 7 292 0.0 0.0 0.00 0.00 0.00 87 1013.4
20260503033014 7 292 0.0 0.0 0.00 0.00 0.00 85 1013.4
20260503031510 7 292 0.0 0.0 0.00 0.00 0.00 87 1013.3
20260503030010 7 292 0.0 0.0 0.00 0.00 0.00 87 1013.3
20260503024504 7 292 0.0 0.0 0.00 0.00 0.00 86 1013.4
20260503023002 7 292 0.0 0.0 0.00 0.00 0.00 84 1013.4
20260503021603 8 292 0.0 0.0 0.00 0.00 0.00 85 1013.5
20260503020115 8 292 0.0 0.0 0.00 0.00 0.00 85 1013.5
20260503014615 8 292 0.0 0.0 0.00 0.00 0.00 84 1013.6
20260503013113 8 292 0.0 0.0 0.00 0.00 0.00 83 1013.6
20260503011555 8 292 0.0 0.0 0.00 0.00 0.00 81 1013.5
20260503010053 8 292 0.0 0.0 0.00 0.00 0.00 83 1013.5
20260503004600 8 292 0.0 0.0 0.00 0.00 0.00 82 1013.5
20260503003052 9 292 0.0 0.0 0.00 0.00 0.00 81 1013.7
20260503001552 9 292 0.0 0.0 0.00 0.00 0.00 81 1013.8
20260503000051 8 292 0.0 0.0 0.00 0.00 0.00 82 1013.9
20260502234600 8 292 0.0 0.0 0.00 0.00 0.00 81 1013.9
20260502233044 9 292 0.0 0.0 0.00 0.00 0.00 79 1013.9
20260502231541 10 292 0.0 0.0 0.00 0.00 0.00 78 1013.9
20260502230040 10 292 0.0 0.0 0.00 0.00 0.00 79 1013.9
20260502224538 10 292 0.0 0.0 0.00 0.00 0.00 78 1013.9
20260502223042 10 292 0.0 0.0 0.00 0.00 0.00 77 1014.0
20260502221534 10 292 0.0 0.0 0.00 0.00 0.00 77 1014.0
20260502220036 11 292 0.0 0.0 0.00 0.00 0.00 75 1014.1
20260502214530 11 292 0.0 0.0 0.00 0.00 0.00 73 1014.0
20260502213030 11 292 0.0 0.0 0.00 0.00 0.00 72 1014.1
20260502211533 12 292 0.0 0.0 0.00 0.00 0.00 70 1014.2
20260502210028 12 292 0.0 0.0 0.00 0.00 0.00 72 1014.1
20260502204537 12 292 0.0 0.0 0.00 0.00 0.00 70 1014.2